ITY681 SAEZ-LIRF

Flight info

Callsign ITY681
Flight time N/A
Altitude 35000
Route PTA6B DORVO UM424 CRR UM540 ITBEB UN857 BITAK UM400 ADA/N0493F370 UZ44 VRI UL206 ARUNU/N0488F390 UL206 KODOS DCT SEROD DCT TURUP UA302 ANITI UR975 ARDAR UA854 SADKA/N0480F410 UA854 BRENA UA29 TRB UM986 ALR UG26 ZEM/N0477F400 UG26 REQIN DCT ORKUM DCT ELSAG DCT ALG DCT TINTO L5 VALMA VALMA3A
Aircraft A359/H-SDE2E3GHIJ3J4J5LM1ORWXY/LB1D1

Departure

Time N/A
Airport Ezeiza International Airport - Ministro Pistarini (SAEZ)

Arrival

Time 2026-05-01 12:10
Airport Rome–Fiumicino Leonardo da Vinci International Airport (LIRF)
Time Latitude Longitude Altitude Speed Heading
2026-05-01 09:23 26.37640 -6.33434 41085 ft 532 kts 39°
2026-05-01 09:23 26.42907 -6.27674 41091 ft 532 kts 39°
2026-05-01 09:24 26.50858 -6.18970 41088 ft 531 kts 39°
2026-05-01 09:25 26.61380 -6.07429 41086 ft 531 kts 39°
2026-05-01 09:26 26.69265 -5.98760 41088 ft 531 kts 39°
2026-05-01 09:26 26.77156 -5.90067 41077 ft 530 kts 39°
2026-05-01 09:27 26.85013 -5.81393 41078 ft 530 kts 39°
2026-05-01 09:28 26.90259 -5.75591 41079 ft 529 kts 39°
2026-05-01 09:28 26.95486 -5.69803 41079 ft 529 kts 39°
2026-05-01 09:29 27.03315 -5.61118 41081 ft 529 kts 39°
2026-05-01 09:30 27.11176 -5.52380 41078 ft 529 kts 39°
2026-05-01 09:30 27.18121 -5.44643 41079 ft 528 kts 39°
2026-05-01 09:31 27.23325 -5.38836 41081 ft 528 kts 39°
2026-05-01 09:32 27.31140 -5.30103 41079 ft 528 kts 39°
2026-05-01 09:32 27.38924 -5.21385 41076 ft 527 kts 39°
2026-05-01 09:33 27.44109 -5.15568 41077 ft 527 kts 39°
2026-05-01 09:34 27.51882 -5.06832 41077 ft 527 kts 39°
2026-05-01 09:34 27.59656 -4.98078 41076 ft 526 kts 39°
2026-05-01 09:35 27.67402 -4.89336 41079 ft 526 kts 39°
2026-05-01 09:36 27.72588 -4.83472 41076 ft 526 kts 39°
2026-05-01 09:36 27.77743 -4.77635 41075 ft 526 kts 39°
2026-05-01 09:37 27.82901 -4.71785 41074 ft 525 kts 39°
2026-05-01 09:37 27.90628 -4.63009 41075 ft 525 kts 40°
2026-05-01 09:38 27.98330 -4.54242 41065 ft 525 kts 40°
2026-05-01 09:39 28.06068 -4.45470 41065 ft 524 kts 39°
2026-05-01 09:39 28.11275 -4.39725 41067 ft 524 kts 39°
2026-05-01 09:40 28.19101 -4.31084 41068 ft 524 kts 39°
2026-05-01 09:41 28.24312 -4.25295 41061 ft 524 kts 39°
2026-05-01 09:41 28.32113 -4.16604 41060 ft 524 kts 39°
2026-05-01 09:42 28.37304 -4.10810 41062 ft 523 kts 39°
2026-05-01 09:43 28.47658 -3.99232 41054 ft 523 kts 39°
2026-05-01 09:43 28.52819 -3.93449 41055 ft 523 kts 39°
2026-05-01 09:44 28.60593 -3.84721 41057 ft 523 kts 39°
2026-05-01 09:45 28.65750 -3.78920 41056 ft 523 kts 39°
2026-05-01 09:45 28.73497 -3.70189 41050 ft 523 kts 39°
2026-05-01 09:46 28.78655 -3.64366 41048 ft 522 kts 39°
2026-05-01 09:46 28.83823 -3.58522 41048 ft 522 kts 39°
2026-05-01 09:47 28.88974 -3.52690 41049 ft 522 kts 39°
2026-05-01 09:47 28.94109 -3.46866 41044 ft 522 kts 39°
2026-05-01 09:48 28.99274 -3.41001 41043 ft 522 kts 39°
2026-05-01 09:48 29.04403 -3.35169 41042 ft 522 kts 40°
2026-05-01 09:49 29.09530 -3.29329 41045 ft 522 kts 40°
2026-05-01 09:49 29.14691 -3.23443 41044 ft 521 kts 40°
2026-05-01 09:50 29.19796 -3.17611 41043 ft 521 kts 40°
2026-05-01 09:50 29.24933 -3.11733 41044 ft 520 kts 40°
2026-05-01 09:51 29.30060 -3.05902 41044 ft 520 kts 39°
2026-05-01 09:51 29.35179 -3.00108 41038 ft 519 kts 39°
2026-05-01 09:52 29.40321 -2.94275 41040 ft 519 kts 39°
2026-05-01 09:52 29.45434 -2.88462 41037 ft 519 kts 39°
2026-05-01 09:53 29.50566 -2.82615 41040 ft 520 kts 40°
2026-05-01 09:53 29.55673 -2.76787 41041 ft 520 kts 40°
2026-05-01 09:54 29.60815 -2.70911 41041 ft 520 kts 40°
2026-05-01 09:54 29.65960 -2.65022 41039 ft 521 kts 39°
2026-05-01 09:55 29.71074 -2.59160 41039 ft 521 kts 40°
2026-05-01 09:55 29.76186 -2.53290 41043 ft 521 kts 39°
2026-05-01 09:56 29.81329 -2.47377 41042 ft 521 kts 39°
2026-05-01 09:56 29.86439 -2.41492 41042 ft 521 kts 39°
2026-05-01 09:57 29.91572 -2.35572 41043 ft 520 kts 39°
2026-05-01 09:57 29.96667 -2.29686 41041 ft 520 kts 39°
2026-05-01 09:58 30.01799 -2.23831 41037 ft 516 kts 36°
2026-05-01 09:58 30.07344 -2.18686 41040 ft 512 kts 32°
2026-05-01 09:59 30.13018 -2.13681 41044 ft 511 kts 31°
2026-05-01 09:59 30.18663 -2.08739 41042 ft 511 kts 31°
2026-05-01 10:00 30.24337 -2.03754 41044 ft 510 kts 31°
2026-05-01 10:00 30.29949 -1.98801 41041 ft 510 kts 31°
2026-05-01 10:01 30.35587 -1.93813 41046 ft 510 kts 31°
2026-05-01 10:01 30.41237 -1.88808 41038 ft 510 kts 31°
2026-05-01 10:02 30.46850 -1.83828 41039 ft 510 kts 31°
2026-05-01 10:02 30.52462 -1.78842 41040 ft 510 kts 31°
2026-05-01 10:03 30.58090 -1.73835 41037 ft 510 kts 31°
2026-05-01 10:03 30.63744 -1.68797 41041 ft 510 kts 32°
2026-05-01 10:04 30.69353 -1.63791 41035 ft 511 kts 32°
2026-05-01 10:04 30.74962 -1.58779 41036 ft 511 kts 32°
2026-05-01 10:05 30.80613 -1.53721 41038 ft 511 kts 32°
2026-05-01 10:05 30.86241 -1.48675 41039 ft 511 kts 32°
2026-05-01 10:06 30.91865 -1.43626 41038 ft 512 kts 32°
2026-05-01 10:06 30.97489 -1.38569 41035 ft 512 kts 32°
2026-05-01 10:07 31.03154 -1.33494 41037 ft 512 kts 31°
2026-05-01 10:07 31.08823 -1.28516 41046 ft 512 kts 31°
2026-05-01 10:08 31.17361 -1.21025 41037 ft 512 kts 31°
2026-05-01 10:09 31.23079 -1.15980 41039 ft 513 kts 31°
2026-05-01 10:09 31.28752 -1.10963 41045 ft 513 kts 32°
2026-05-01 10:10 31.34445 -1.05919 41046 ft 513 kts 32°
2026-05-01 10:10 31.42979 -0.98345 41058 ft 514 kts 32°
2026-05-01 10:11 31.48648 -0.93304 41042 ft 514 kts 32°
2026-05-01 10:11 31.54362 -0.88215 41046 ft 514 kts 32°
2026-05-01 10:12 31.59074 -0.84014 41053 ft 514 kts 32°
2026-05-01 10:13 31.68564 -0.75534 41052 ft 514 kts 32°
2026-05-01 10:13 31.74238 -0.70453 41055 ft 514 kts 32°
2026-05-01 10:14 31.82785 -0.62785 41052 ft 515 kts 32°
2026-05-01 10:14 31.88454 -0.57689 41055 ft 515 kts 32°
2026-05-01 10:15 31.94152 -0.52615 41056 ft 514 kts 31°
2026-05-01 10:15 31.99888 -0.47553 41057 ft 514 kts 31°
2026-05-01 10:16 32.05578 -0.42519 41059 ft 514 kts 31°
2026-05-01 10:17 32.14146 -0.34905 41058 ft 514 kts 31°
2026-05-01 10:17 32.22686 -0.27293 41061 ft 514 kts 32°
2026-05-01 10:18 32.31253 -0.19640 41063 ft 514 kts 32°
2026-05-01 10:19 32.36939 -0.14550 41066 ft 515 kts 32°
2026-05-01 10:19 32.42665 -0.09416 41070 ft 515 kts 32°
2026-05-01 10:20 32.51222 -0.01728 41069 ft 516 kts 32°
2026-05-01 10:20 32.56921 0.03402 41068 ft 516 kts 32°
2026-05-01 10:21 32.65499 0.11142 41072 ft 516 kts 32°
2026-05-01 10:22 32.74032 0.18859 41075 ft 516 kts 32°
2026-05-01 10:23 32.82586 0.26613 41079 ft 516 kts 32°
2026-05-01 10:23 32.91169 0.34413 41082 ft 516 kts 32°
2026-05-01 10:24 33.02561 0.44798 41088 ft 517 kts 32°
2026-05-01 10:25 33.13949 0.55213 41090 ft 516 kts 32°
2026-05-01 10:26 33.19631 0.60422 41088 ft 517 kts 32°
2026-05-01 10:27 33.31040 0.70909 41098 ft 517 kts 32°
2026-05-01 10:28 33.39584 0.78786 41101 ft 518 kts 32°
2026-05-01 10:28 33.48126 0.86680 41128 ft 518 kts 32°
2026-05-01 10:29 33.56665 0.94593 41183 ft 518 kts 32°
2026-05-01 10:30 33.68075 1.05090 41212 ft 514 kts 28°
2026-05-01 10:31 33.74396 1.08674 41220 ft 498 kts
2026-05-01 10:31 33.81080 1.10660 41210 ft 494 kts
2026-05-01 10:32 33.90067 1.12952 41180 ft 494 kts
2026-05-01 10:33 34.03496 1.16420 41145 ft 494 kts
2026-05-01 10:34 34.13552 1.19069 41132 ft 495 kts
2026-05-01 10:34 34.20287 1.20846 41135 ft 495 kts
2026-05-01 10:35 34.30358 1.23507 41135 ft 495 kts
2026-05-01 10:35 34.37109 1.25295 41134 ft 495 kts
2026-05-01 10:36 34.47162 1.27961 41140 ft 495 kts
2026-05-01 10:37 34.53905 1.29754 41139 ft 495 kts
2026-05-01 10:37 34.63990 1.32440 41142 ft 496 kts
2026-05-01 10:38 34.70752 1.34245 41148 ft 496 kts
2026-05-01 10:38 34.77483 1.36044 41147 ft 496 kts
2026-05-01 10:39 34.84221 1.37849 41160 ft 497 kts
2026-05-01 10:39 34.90968 1.39659 41153 ft 497 kts
2026-05-01 10:40 34.97732 1.41477 41160 ft 497 kts
2026-05-01 10:40 35.04467 1.43290 41183 ft 498 kts
2026-05-01 10:41 35.11258 1.45120 41202 ft 498 kts
2026-05-01 10:42 35.21398 1.47861 41226 ft 499 kts
2026-05-01 10:42 35.28134 1.49690 41233 ft 499 kts
2026-05-01 10:43 35.34667 1.52749 41245 ft 510 kts 26°
2026-05-01 10:43 35.37626 1.55259 41235 ft 516 kts 37°
2026-05-01 10:43 35.40253 1.58210 41230 ft 518 kts 41°
2026-05-01 10:44 35.45353 1.64484 41211 ft 519 kts 40°
2026-05-01 10:44 35.50708 1.70354 41197 ft 517 kts 37°
2026-05-01 10:45 35.56206 1.76039 41177 ft 517 kts 36°
2026-05-01 10:45 35.61731 1.81736 41169 ft 517 kts 37°
2026-05-01 10:46 35.67227 1.87454 41170 ft 517 kts 37°
2026-05-01 10:46 35.72707 1.93188 41168 ft 517 kts 37°
2026-05-01 10:47 35.78194 1.98946 41169 ft 517 kts 37°
2026-05-01 10:47 35.83642 2.04671 41169 ft 517 kts 37°
2026-05-01 10:48 35.89121 2.10438 41167 ft 518 kts 37°
2026-05-01 10:48 35.93680 2.15245 41166 ft 517 kts 37°
2026-05-01 10:49 35.99026 2.20891 41168 ft 518 kts 37°
2026-05-01 10:49 36.04296 2.26460 41273 ft 517 kts 37°
2026-05-01 10:50 36.09688 2.32126 41177 ft 517 kts 37°
2026-05-01 10:50 36.15112 2.37914 41172 ft 517 kts 38°
2026-05-01 10:51 36.20531 2.43662 41164 ft 517 kts 37°
2026-05-01 10:51 36.25975 2.49494 41175 ft 517 kts 38°
2026-05-01 10:52 36.31417 2.55325 41176 ft 517 kts 37°
2026-05-01 10:52 36.36826 2.61119 41177 ft 516 kts 37°
2026-05-01 10:53 36.42258 2.66942 41177 ft 516 kts 37°
2026-05-01 10:53 36.47697 2.72785 41179 ft 516 kts 38°
2026-05-01 10:54 36.53131 2.78634 41181 ft 516 kts 38°
2026-05-01 10:54 36.58557 2.84485 41179 ft 516 kts 38°
2026-05-01 10:55 36.63978 2.90343 41168 ft 516 kts 38°
2026-05-01 10:55 36.69399 2.96212 41164 ft 515 kts 38°
2026-05-01 10:56 36.74776 3.02045 41166 ft 515 kts 38°
2026-05-01 10:56 36.80180 3.07918 41161 ft 515 kts 38°
2026-05-01 10:57 36.85572 3.13791 41162 ft 514 kts 38°
2026-05-01 10:57 36.90962 3.19671 41162 ft 514 kts 38°
2026-05-01 10:58 36.96352 3.25564 41166 ft 514 kts 38°
2026-05-01 10:58 37.01738 3.31463 41171 ft 514 kts 38°
2026-05-01 10:59 37.07078 3.37324 41169 ft 514 kts 38°
2026-05-01 10:59 37.12447 3.43229 41167 ft 513 kts 38°
2026-05-01 11:00 37.17817 3.49145 41170 ft 513 kts 38°
2026-05-01 11:00 37.23180 3.55066 41163 ft 513 kts 38°
2026-05-01 11:01 37.28537 3.60990 41169 ft 513 kts 38°
2026-05-01 11:01 37.33904 3.66939 41169 ft 513 kts 38°
2026-05-01 11:02 37.39251 3.72878 41166 ft 513 kts 38°
2026-05-01 11:02 37.44559 3.78785 41167 ft 512 kts 38°
2026-05-01 11:03 37.49898 3.84738 41166 ft 512 kts 38°
2026-05-01 11:03 37.55230 3.90694 41166 ft 512 kts 38°
2026-05-01 11:04 37.60558 3.96659 41166 ft 512 kts 38°
2026-05-01 11:04 37.65878 4.02625 41167 ft 511 kts 38°
2026-05-01 11:05 37.71198 4.08605 41167 ft 511 kts 38°
2026-05-01 11:05 37.76473 4.14545 41165 ft 511 kts 38°
2026-05-01 11:06 37.81772 4.20524 41171 ft 511 kts 38°
2026-05-01 11:06 37.87077 4.26522 41168 ft 511 kts 38°
2026-05-01 11:07 37.95028 4.35535 41168 ft 511 kts 38°
2026-05-01 11:07 38.00280 4.41503 41164 ft 510 kts 38°
2026-05-01 11:08 38.05566 4.47522 41173 ft 510 kts 38°
2026-05-01 11:09 38.13490 4.56568 41173 ft 510 kts 38°
2026-05-01 11:09 38.18762 4.62601 41177 ft 510 kts 38°
2026-05-01 11:10 38.26671 4.71675 41179 ft 510 kts 38°
2026-05-01 11:10 38.31934 4.77730 41182 ft 510 kts 39°
2026-05-01 11:11 38.37194 4.83792 41181 ft 510 kts 39°
2026-05-01 11:11 38.42449 4.89862 41188 ft 510 kts 39°
2026-05-01 11:12 38.47672 4.95908 41181 ft 510 kts 39°
2026-05-01 11:12 38.52918 5.01991 41186 ft 509 kts 39°
2026-05-01 11:13 38.58168 5.08093 41194 ft 509 kts 39°
2026-05-01 11:13 38.63406 5.14192 41192 ft 509 kts 39°
2026-05-01 11:14 38.68657 5.20321 41193 ft 509 kts 39°
2026-05-01 11:14 38.73862 5.26407 41201 ft 509 kts 39°
2026-05-01 11:15 38.79095 5.32539 41201 ft 509 kts 39°
2026-05-01 11:15 38.84320 5.38675 41204 ft 509 kts 39°
2026-05-01 11:16 38.89536 5.44812 41208 ft 509 kts 39°
2026-05-01 11:16 38.94750 5.50960 41206 ft 509 kts 39°
2026-05-01 11:17 38.99965 5.57123 41207 ft 508 kts 39°
2026-05-01 11:17 39.05140 5.63250 41215 ft 508 kts 39°
2026-05-01 11:18 39.10342 5.69423 41212 ft 508 kts 39°
2026-05-01 11:18 39.15546 5.75610 41212 ft 508 kts 39°
2026-05-01 11:19 39.20636 5.81676 41216 ft 508 kts 39°
2026-05-01 11:19 39.25825 5.87872 41219 ft 508 kts 39°
2026-05-01 11:20 39.30976 5.94035 41216 ft 507 kts 39°
2026-05-01 11:20 39.36157 6.00247 41217 ft 507 kts 39°
2026-05-01 11:21 39.41328 6.06461 41220 ft 507 kts 39°
2026-05-01 11:21 39.45527 6.11517 41218 ft 507 kts 39°
2026-05-01 11:22 39.50690 6.17745 41221 ft 506 kts 39°
2026-05-01 11:22 39.55838 6.23967 41229 ft 506 kts 39°
2026-05-01 11:23 39.60974 6.30189 41229 ft 506 kts 39°
2026-05-01 11:23 39.66135 6.36455 41220 ft 506 kts 39°
2026-05-01 11:24 39.71236 6.42660 41222 ft 506 kts 39°
2026-05-01 11:25 39.78957 6.52078 41223 ft 505 kts 39°
2026-05-01 11:25 39.86615 6.61451 41225 ft 505 kts 39°
2026-05-01 11:26 39.94284 6.70866 41226 ft 505 kts 39°
2026-05-01 11:27 39.99370 6.77128 41224 ft 505 kts 39°
2026-05-01 11:27 40.04461 6.83408 41229 ft 505 kts 39°
2026-05-01 11:28 40.09573 6.89729 41230 ft 504 kts 39°
2026-05-01 11:28 40.14635 6.96001 41232 ft 504 kts 39°
2026-05-01 11:29 40.22250 7.05462 41230 ft 503 kts 39°
2026-05-01 11:30 40.29854 7.14940 41232 ft 502 kts 39°
2026-05-01 11:30 40.34897 7.21243 41231 ft 502 kts 39°
2026-05-01 11:31 40.39949 7.27571 41228 ft 501 kts 39°
2026-05-01 11:31 40.44997 7.33908 41233 ft 500 kts 39°
2026-05-01 11:32 40.49994 7.40195 41230 ft 500 kts 39°
2026-05-01 11:32 40.54443 7.47285 41233 ft 508 kts 56°
2026-05-01 11:33 40.57053 7.55925 41234 ft 515 kts 75°
2026-05-01 11:33 40.58152 7.65217 41233 ft 513 kts 82°
2026-05-01 11:34 40.58797 7.74481 41235 ft 509 kts 83°
2026-05-01 11:34 40.59468 7.83731 41229 ft 508 kts 82°
2026-05-01 11:35 40.60218 7.93012 41225 ft 508 kts 82°
2026-05-01 11:35 40.60992 8.02243 41219 ft 508 kts 81°
2026-05-01 11:36 40.61766 8.11471 41215 ft 508 kts 82°
2026-05-01 11:36 40.62527 8.20716 41212 ft 508 kts 82°
2026-05-01 11:36 40.63264 8.25264 41213 ft 504 kts 68°
2026-05-01 11:37 40.64446 8.29608 41213 ft 502 kts 66°
2026-05-01 11:37 40.67063 8.38085 41212 ft 502 kts 64°
2026-05-01 11:38 40.69779 8.46529 41217 ft 502 kts 64°
2026-05-01 11:38 40.72480 8.55014 41226 ft 502 kts 64°
2026-05-01 11:39 40.75157 8.63539 41234 ft 502 kts 64°
2026-05-01 11:39 40.77811 8.72045 41240 ft 503 kts 64°
2026-05-01 11:40 40.80460 8.80568 41243 ft 503 kts 64°
2026-05-01 11:40 40.83099 8.89079 41245 ft 503 kts 64°
2026-05-01 11:41 40.85755 8.97668 41261 ft 504 kts 64°
2026-05-01 11:41 40.88401 9.06252 41272 ft 504 kts 64°
2026-05-01 11:42 40.91030 9.14810 41271 ft 504 kts 64°
2026-05-01 11:42 40.93668 9.23424 41281 ft 504 kts 64°
2026-05-01 11:42 40.94971 9.27692 41081 ft 503 kts 64°
2026-05-01 11:43 40.96270 9.31952 40744 ft 501 kts 64°
2026-05-01 11:43 40.97576 9.36248 40200 ft 500 kts 64°
2026-05-01 11:43 40.98866 9.40497 39617 ft 499 kts 63°
2026-05-01 11:44 41.01447 9.49009 38264 ft 499 kts 63°
2026-05-01 11:44 41.02740 9.53281 37596 ft 497 kts 63°
2026-05-01 11:44 41.04017 9.57504 36931 ft 496 kts 63°
2026-05-01 11:44 41.05295 9.61741 36270 ft 494 kts 63°
2026-05-01 11:45 41.06566 9.65959 35585 ft 493 kts 63°
2026-05-01 11:45 41.07845 9.70210 34811 ft 494 kts 62°
2026-05-01 11:45 41.09108 9.74413 33986 ft 495 kts 63°
2026-05-01 11:45 41.10389 9.78682 33136 ft 495 kts 63°
2026-05-01 11:46 41.11656 9.82910 32305 ft 494 kts 63°
2026-05-01 11:46 41.12917 9.87132 31485 ft 493 kts 63°
2026-05-01 11:46 41.14177 9.91358 31039 ft 495 kts 63°
2026-05-01 11:46 41.15449 9.95626 30685 ft 494 kts 63°
2026-05-01 11:47 41.16701 9.99848 30379 ft 492 kts 63°
2026-05-01 11:47 41.17951 10.04061 30280 ft 495 kts 63°
2026-05-01 11:47 41.20478 10.12597 30280 ft 494 kts 63°
2026-05-01 11:48 41.22980 10.21079 30278 ft 494 kts 63°
2026-05-01 11:48 41.25468 10.29537 30277 ft 494 kts 63°
2026-05-01 11:49 41.27954 10.38020 30143 ft 488 kts 63°
2026-05-01 11:49 41.29177 10.42214 29282 ft 484 kts 63°
2026-05-01 11:49 41.30403 10.46414 28219 ft 486 kts 63°
2026-05-01 11:50 41.31610 10.50552 27380 ft 482 kts 63°
2026-05-01 11:50 41.32814 10.54694 26629 ft 476 kts 63°
2026-05-01 11:50 41.34000 10.58783 25947 ft 470 kts 63°
2026-05-01 11:50 41.35166 10.62815 25352 ft 461 kts 63°
2026-05-01 11:51 41.36298 10.66733 24776 ft 453 kts 62°
2026-05-01 11:51 41.37420 10.70619 24208 ft 445 kts 62°
2026-05-01 11:51 41.38525 10.74448 23615 ft 437 kts 62°
2026-05-01 11:51 41.39597 10.78166 23043 ft 427 kts 62°
2026-05-01 11:52 41.40653 10.81834 22503 ft 418 kts 62°
2026-05-01 11:52 41.41686 10.85424 21975 ft 410 kts 63°
2026-05-01 11:52 41.42688 10.88910 21467 ft 403 kts 63°
2026-05-01 11:52 41.43684 10.92377 20953 ft 396 kts 63°
2026-05-01 11:53 41.44657 10.95776 20482 ft 390 kts 63°
2026-05-01 11:53 41.45420 10.99250 20447 ft 396 kts 72°
2026-05-01 11:53 41.45828 11.02939 20387 ft 414 kts 77°
2026-05-01 11:53 41.46109 11.06820 20151 ft 417 kts 78°
2026-05-01 11:54 41.46347 11.10635 19915 ft 417 kts 79°
2026-05-01 11:54 41.46579 11.14516 19673 ft 416 kts 79°
2026-05-01 11:54 41.46802 11.18301 19435 ft 414 kts 79°
2026-05-01 11:54 41.47027 11.22158 19200 ft 413 kts 79°
2026-05-01 11:55 41.47248 11.25970 18962 ft 411 kts 79°
2026-05-01 11:55 41.47464 11.29726 18733 ft 410 kts 79°
2026-05-01 11:55 41.47679 11.33509 18181 ft 403 kts 79°
2026-05-01 11:55 41.47886 11.37183 17517 ft 397 kts 79°
2026-05-01 11:56 41.48092 11.40836 16860 ft 392 kts 79°
2026-05-01 11:56 41.48296 11.44459 16193 ft 387 kts 80°
2026-05-01 11:56 41.48494 11.47981 15543 ft 383 kts 80°
2026-05-01 11:56 41.48691 11.51525 14874 ft 379 kts 80°
2026-05-01 11:57 41.48885 11.55024 14227 ft 375 kts 80°
2026-05-01 11:57 41.49074 11.58446 13529 ft 371 kts 80°
2026-05-01 11:57 41.49262 11.61880 12862 ft 366 kts 81°
2026-05-01 11:57 41.49444 11.65223 12219 ft 361 kts 81°
2026-05-01 11:58 41.49622 11.68498 11589 ft 356 kts 81°
2026-05-01 11:58 41.49800 11.71797 10967 ft 351 kts 81°
2026-05-01 11:58 41.50124 11.77999 10659 ft 317 kts 81°
2026-05-01 11:59 41.50271 11.80819 10533 ft 302 kts 81°
2026-05-01 11:59 41.50415 11.83573 10403 ft 288 kts 81°
2026-05-01 11:59 41.50550 11.86155 10272 ft 276 kts 81°
2026-05-01 12:00 41.50822 11.91218 10012 ft 279 kts 81°
2026-05-01 12:00 41.50963 11.93837 9753 ft 281 kts 81°
2026-05-01 12:00 41.51232 11.99037 8851 ft 280 kts 82°
2026-05-01 12:01 41.51364 12.01622 8451 ft 276 kts 82°
2026-05-01 12:01 41.51491 12.04129 8086 ft 272 kts 82°
2026-05-01 12:01 41.51619 12.06653 7714 ft 270 kts 83°
2026-05-01 12:01 41.51746 12.09147 7349 ft 268 kts 83°
2026-05-01 12:02 41.51869 12.11603 6987 ft 267 kts 83°
2026-05-01 12:02 41.51993 12.14067 6616 ft 265 kts 84°
2026-05-01 12:02 41.52115 12.16520 6241 ft 263 kts 84°
2026-05-01 12:02 41.52233 12.18925 5823 ft 262 kts 84°
2026-05-01 12:03 41.52354 12.21375 5338 ft 263 kts 84°
2026-05-01 12:03 41.52472 12.23779 4939 ft 260 kts 84°
2026-05-01 12:03 41.52589 12.26188 4568 ft 258 kts 84°
2026-05-01 12:03 41.52778 12.28576 4220 ft 256 kts 76°
2026-05-01 12:04 41.53502 12.30684 3919 ft 253 kts 50°
2026-05-01 12:04 41.54853 12.32052 3797 ft 238 kts 22°
2026-05-01 12:04 41.56443 12.32430 3688 ft 226 kts
2026-05-01 12:04 41.57968 12.32342 3580 ft 217 kts 352°
2026-05-01 12:05 41.59398 12.31868 3492 ft 206 kts 344°
2026-05-01 12:05 41.61971 12.30777 3312 ft 182 kts 344°
2026-05-01 12:05 41.63128 12.30295 3225 ft 169 kts 345°
2026-05-01 12:06 41.64200 12.29851 3096 ft 157 kts 345°
2026-05-01 12:06 41.65265 12.29415 2902 ft 160 kts 345°
2026-05-01 12:06 41.66303 12.28989 2732 ft 152 kts 345°
2026-05-01 12:06 41.67288 12.28580 2516 ft 142 kts 345°
2026-05-01 12:07 41.68210 12.28197 2430 ft 141 kts 345°
2026-05-01 12:07 41.69152 12.27805 2212 ft 141 kts 345°
2026-05-01 12:07 41.70093 12.27415 1994 ft 141 kts 344°
2026-05-01 12:07 41.71020 12.27027 1764 ft 141 kts 345°
2026-05-01 12:08 41.71954 12.26639 1541 ft 139 kts 345°
2026-05-01 12:08 41.72871 12.26258 1333 ft 140 kts 344°
2026-05-01 12:08 41.73805 12.25866 1118 ft 143 kts 345°
2026-05-01 12:08 41.74732 12.25483 918 ft 138 kts 344°
2026-05-01 12:09 41.75675 12.25085 707 ft 141 kts 343°
2026-05-01 12:09 41.76613 12.24687 466 ft 139 kts 345°
2026-05-01 12:09 41.77522 12.24311 226 ft 137 kts 345°
2026-05-01 12:09 41.78418 12.23946 37 ft 132 kts 345°
2026-05-01 12:10 41.79199 12.23624 21 ft 88 kts 342°
2026-05-01 12:10 41.79732 12.23538 21 ft 18 kts 11°
2026-05-01 12:10 41.79785 12.23577 21 ft 0 kts 50°
2026-05-01 12:11 41.79807 12.23626 21 ft 18 kts 64°
2026-05-01 12:11 41.79849 12.23804 20 ft 22 kts 69°
2026-05-01 12:12 41.79905 12.24003 21 ft 24 kts 70°
2026-05-01 12:12 41.79896 12.24210 22 ft 23 kts 106°
2026-05-01 12:12 41.79846 12.24300 20 ft 14 kts 136°
2026-05-01 12:12 41.79837 12.24364 20 ft 0 kts 72°
2026-05-01 12:13 41.79837 12.24365 20 ft 0 kts 72°
2026-05-01 12:13 41.79876 12.24433 20 ft 7 kts 67°
2026-05-01 12:13 41.79872 12.24481 20 ft 9 kts 109°
2026-05-01 12:13 41.79817 12.24574 20 ft 0 kts 131°